weather.gov     
National Weather Service

Regional Weather Roundup
NWS Homepage
This page is being discontinued on March 12, 2014.
The same data is available at this site. Please update your bookmarks.
Thank you, and we apologize for the inconvenience.
Please send an email to SR-SRH.Webmaster@noaa.gov with any concerns.


Current Version
Previous Version:    01  02  03  04  05  06  07  08  09  10  11  12  13  14  15  16  17  18  19  20  21  22  23  24  25  26  27  28  29  30  
   31  32  33  34  35  36  37  38  39  40  41  42  43  44  45  46  47  48  49  50  51  52  
[Printable]
030
ASUS45 KTFX 301319
RWRMT
MONTANA HOURLY WEATHER ROUNDUP
NATIONAL WEATHER SERVICE GREAT FALLS MT
719 AM MDT THU OCT 30 2014

NOTE: "FAIR" INDICATES FEW OR NO CLOUDS BELOW 12000 FEET WITH NO
SIGNIFICANT WEATHER AND/OR OBSTRUCTIONS TO VISIBILITY.

* THESE STATIONS ARE NOT UNDER NWS QUALITY CONTROL. THEY DO NOT
   REPORT WEATHER SUCH AS PRECIPITATION OR FOG.

MTZ001>007-043-301400-
WEST OF THE DIVIDE
CITY           SKY/WX    TMP DP  RH WIND       PRES   REMARKS
KALISPELL      FOG       39  39 100 CALM      30.26R VSB 1/2
MISSOULA       FOG       37  37 100 CALM      30.27S VSB M1/4
BUTTE          CLOUDY    34  28  79 SE3       30.28S
MULLAN PASS    FOG       34  34 100 S10       30.19F VSB M1/4 WCI  26
* DEER LODGE   CLOUDY    34  30  85 N/A        N/A
* ESSEX        N/A       38  38 100 N/A        N/A
* HAMILTON APT CLOUDY    41  36  82 N/A        N/A
* LIBBY APT    MOCLDY    43  41  93 N/A        N/A
* LINCOLN      N/A       29  28  96 N1         N/A
* LOOKOUT PASS N/A       38  38 100 S11G16     N/A   WCI  31
* POLSON       N/A       39  39 100 NE1        N/A
* RONAN APT    MOCLDY    32  30  92 N/A        N/A
* SEELEY LAKE  N/A       30  29  96 N/A        N/A
* THOMP F APT  CLOUDY    39  27  62 N2         N/A
* YAAK HILL    N/A       42  39  89 SE1        N/A
$$

MTZ008-052>055-301400-
SOUTHWEST MONTANA
CITY           SKY/WX    TMP DP  RH WIND       PRES   REMARKS
BOZEMAN        MOCLDY    34  28  79 CALM      30.29S
DILLON         CLOUDY    37  28  70 SW8       30.28R WCI  31
W YELLOWSTONE  CLOUDY    25  25 100 CALM      30.36R
* ENNIS APT    CLOUDY    37  28  70 E3         N/A
* THREE FORKS  CLOUDY    30   9  41 N/A        N/A
* BOULDER HILL N/A       34  25  70 SW11       N/A   WCI  26
* RAYNOLDS PAS N/A       32  18  56 S9G14      N/A   WCI  24
* WHITEHALL    N/A       34  28  79 N3         N/A
* WISE RIVER   N/A       30  28  92 E2         N/A
$$

MTZ009>010-012-014-046-048-049-054-301400-
EAST SLOPES AND CENTRAL MONTANA
CITY           SKY/WX    TMP DP  RH WIND       PRES   REMARKS
CUT BANK       CLEAR     27  25  92 N3        30.22R
GREAT FALLS    CLEAR     32  28  85 S9        30.23S WCI  24
HELENA         MOCLDY    37  32  82 CALM      30.27S
MALMSTROM AFB  CLEAR     37  30  76 W1        30.25S
* CONRAD       CLEAR     21  19  92 N/A        N/A
* DEARBORN     N/A       32  31  96 S2         N/A
* EAST GLACIER N/A       38  33  82 W10G15     N/A   WCI  31
* MONARCH      N/A       31  24  75 S12        N/A   WCI  22
* SAINT MARY   N/A       40  29  65 S5G11      N/A   WCI  36
* SWEET GRASS  N/A       40  30  68 W9         N/A   WCI  34
* WHITE SULPH  N/A       29  25  85 E7         N/A   WCI  22
$$

MTZ011-013-016-021-035-040-045-047-050-051-301400-
NORTH CENTRAL MONTANA
CITY           SKY/WX    TMP DP  RH WIND       PRES   REMARKS
HAVRE          CLEAR     30  28  92 E6        30.26R WCI  24
LEWISTOWN      CLEAR     30  27  89 SE6       30.27S WCI  24
* N BAR RANCH  CLEAR     36  28  73 W7        30.28R WCI  30
* FORT BENTON  CLEAR     34  28  79 W3        30.26R
* MALTA APT    CLEAR     32  28  85 N6         N/A   WCI  26
* CHESTER      N/A       30  28  92 N/A        N/A
* DENTON       N/A       35  29  79 W3G9       N/A
* GEYSER       N/A       32  25  75 SW4        N/A
* JUDITH GAP   N/A       34  26  73 W1G6       N/A
* LOMA         N/A       34  30  85 W5         N/A   WCI  29
$$

MTZ017>020-022>027-061-062-301400-
NORTHEAST MONTANA
CITY           SKY/WX    TMP DP  RH WIND       PRES   REMARKS
GLASGOW        CLOUDY    36  30  79 NE6       30.30R WCI  31
GLENDIVE       CLOUDY    36  32  85 N6        30.30R WCI  31
JORDAN         CLEAR     25  23  92 CALM      30.28R
SIDNEY         CLOUDY    36  32  85 N8        30.32R WCI  30
WOLF POINT     CLOUDY    37  30  76 NE10      30.31R WCI  30
* BEAVER HILL  N/A       34  32  92 VRB6G15    N/A   WCI  29
* CIRCLE       N/A       29  27  92 N/A        N/A
* LINDSAY DVD  N/A       32  32 100 N7         N/A   WCI  25
* NAVAJO       N/A       31  30  96 VRB11      N/A   WCI  22
* PLENTYWOOD A N/A       32  30  92 N8         N/A   WCI  25
* POPLAR APT   N/A       36  30  79 N/A        N/A
* SCOBEY APT   PTCLDY    32  27  82 N9         N/A   WCI  24
$$

MTZ028>042-056>058-301400-
SOUTHCENTRAL AND SOUTHEAST MONTANA
CITY           SKY/WX    TMP DP  RH WIND       PRES   REMARKS
BAKER          CLOUDY    34  32  92 N8        30.27R WCI  27
BILLINGS       CLEAR     36  27  70 SW13      30.28R WCI  27
LIVINGSTON     MOCLDY    34  27  76 VRB3      30.28S
MILES CITY     CLEAR     28  27  96 NW5       30.28R WCI  22
* FORSYTH APT  CLEAR     39  30  70 W5         N/A   WCI  35
* LAUREL APT   PTCLDY    36  25  64 N/A        N/A
* ROUNDUP APT  CLEAR     32  25  75 N/A        N/A
* ALZADA       N/A       33  28  82 W4         N/A
* HYSHAM       N/A       37  29  73 W7         N/A   WCI  32
* LAME DEER    N/A       39  29  67 W8         N/A   WCI  33
* REED POINT   N/A       28  27  96 N/A        N/A
* ROSCOE HILL  N/A       42  20  41 SE3        N/A
$$

REGIONAL REPORTS...DAKOTAS
CITY           SKY/WX    TMP DP  RH WIND       PRES   REMARKS
WILLISTON      CLOUDY    37  34  89 N8        30.30R WCI  31
DICKINSON      FOG       34  32  92 NW10      30.24R WCI  26
BEACH          N/A       32  32 100 N8        30.28R WCI  25
CROSBY         CLOUDY    34  34 100 N9        30.30R WCI  27
TIOGA          CLOUDY    32  32 100 NE7       30.30R WCI  25
BISMARCK       CLEAR     32  30  92 NW12      30.23R WCI  23
GRAND FORKS    MOCLDY    28  27  96 N10       30.16R WCI  19
FARGO          LGT RAIN  39  37  93 N13       30.11R VSB 3    WCI  31
BUFFALO SD     CLEAR     36  30  79 NW10      30.17R WCI  29
RAPID CITY     CLEAR     39  30  70 N10       30.22R WCI  32
$$

REGIONAL REPORTS...WYOMING/IDAHO/WASHINGTON
CITY           SKY/WX    TMP DP  RH WIND       PRES   REMARKS
GILLETTE       CLEAR     36  27  70 W9        30.28S WCI  29
SHERIDAN       CLEAR     30  25  82 CALM      30.30R
CODY           MOCLDY    34  27  76 CALM      30.31R
YELLOWSTONE LA PTCLDY    27  25  92 CALM      30.39R
SALMON         CLOUDY    37  36  96 CALM      30.27S
MULLAN PASS    FOG       34  34 100 S10       30.19S VSB M1/4 WCI  26
SAND POINT     CLOUDY    43  43 100 NE8       30.20F
SPOKANE        FOG       45  43  93 NE9       30.12F VSB 3
$$

REGIONAL REPORTS...ALBERTA
CITY           SKY/WX    TMP DP  RH WIND       PRES   REMARKS
CALGARY        FOG       27  25  92 S5        30.18S VSB M1/4 WCI  21
LETHBRIDGE     FOG       27  27 100 E6        30.23R VSB M1/4 WCI  20
MEDICINE HAT   FOG       32  32 100 E12       30.27R VSB 1/4  WCI  23
EDMONTON       CLOUDY    32  30  92 SE16G22   30.21F WCI  21
WATERTON GATE  N/A       43  30  60 SW14G20    N/A
CARDSTON       N/A       30  27  89 SW3        N/A
MILK RIVER     N/A       27  25  92 W5         N/A   WCI  21
$$

REGIONAL REPORTS...SASKATCHEWAN
CITY           SKY/WX    TMP DP  RH WIND       PRES   REMARKS
SWIFT CURRENT  FOG       30  30 100 E9        30.30R VSB 3    WCI  22
MOOSE JAW      CLOUDY    32  28  85 N6        30.36R WCI  26
REGINA         CLOUDY    32  30  92 N8        30.34R WCI  25
VAL MARIE      N/A       32  34 N/A E5         N/A   WCI  27
ASSINIBOIA     N/A       32  30  92 NE7        N/A   WCI  25
CORONACH       N/A       32  30  92 N8         N/A   WCI  25

$$





U.S. Dept. of Commerce
NOAA National Weather Service
1325 East West Highway
Silver Spring, MD 20910
E-mail: w-nws.webmaster@noaa.gov
Page last modified: May 16, 2007
NATIONAL WEATHER SERVICE: for Safety, for Work, for Fun - FOR LIFE